Regional Weather Roundup
Issued by NWS

Home | Current Version | Previous Version | Text Only | Print | Product List | Glossary On
Versions: 1 2 3 4 5 6 7 8 9 10 11 12 13 14 15 16 17 18 19 20 21 22 23 24 25 26 27 28 29 30 31 32 33 34 35 36 37 38 39 40 41 42 43 44 45 46 47 48 49 50
000
ASCA42 TJSJ 171411
RWRPR
PUERTO RICO/U.S. VIRGIN ISLANDS HOURLY WEATHER ROUNDUP
NATIONAL WEATHER SERVICE SAN JUAN PR
1000 AM AST THU APR 17 2014

PRZ001-004-171500-
PUERTO RICO

CITY           SKY/WX    TMP DP  RH WIND       PRES   REMARKS
SAN JUAN LMM   MOSUNNY   82  72  69 E20G25    30.05
MAYAGUEZ       MOSUNNY   82  68  61 E13       30.02
AGUADILLA      MOSUNNY   82  68  61 E18       30.05
CEIBA          MOSUNNY   82  70  65 E13G21    30.07
$$

PRZ006-007-171500-
U.S. VIRGIN ISLANDS

CITY           SKY/WX    TMP DP  RH WIND       PRES   REMARKS
CHARLOTTE AMA  MOSUNNY   82  72  69 E16G22    30.04
CHRISTIANSTED  SUNNY     82  66  57 E15G25    30.05
$$

HOURLY WEATHER ROUNDUP FOR THE NEWS MEDIA

CITY           SKY/WX    TMP DP  RH WIND       PRES   REMARKS
MIAMI          PTSUNNY   81  71  71 E12       30.11
ORLANDO        CLOUDY    72  64  76 NE12      30.20
NEW YORK       MOSUNNY   43  21  41 E9G18     30.74
NEWARK         MOSUNNY   42  21  43 E10G17    30.73
CHICAGO        MOSUNNY   49  29  46 SW18      30.14
HARTFORD       SUNNY     40  23  50 N14G26    30.75  WCI  32
BOSTON         MOSUNNY   37  21  52 NE20      30.81  WCI  27
DALLAS         CLOUDY    55  47  74 SE10      30.13
PHILADELPHIA   MOSUNNY   46  29  51 E9        30.71



USA.gov is the U.S. government's official web portal to all federal, state and local government web resources and services.